Current weather by "City, St" or "zip code"  
 

Current Conditions: Birmingham, Birmingham International Airport, AL

Partly Cloudy


91.0 F

Last Updated on Jul 3 2022, 1:53 pm CDT
Humidity: 56%
Wind Speed: W 4.6 mph
Barometer 30.08 in
Dewpoint: 73.0 F
Visibility: 10.00 mi
Precip: --
Heat Index: 100 F
Wind Chill: NA
Current conditions at:

Birmingham, Birmingham International Airport, AL (KBHM)

Lat: 33.56556 Lon: 86.745

Local Radar Image active severe weather and emergency alerts image image weather storm and storm spotter reports image weather observation monitoring service image
Local
Radar
Active
Alerts
Storm Reports Obs
Monitoring

Sign-up For Email & Text Message Weather Alert Notification Services



Advertise Here

Observation History for Birmingham, Birmingham International Airport, AL


Time Wind
(mph)
Vis
(mi)
Weather Precip (in) Temperature (F) Relative
Humidity
Wind
Chill
(F)
Heat
Index
(F)
Pressure
Air Dwpt altimeter
(in)
sea level
(mb)
Rmks
1:53 pm CDT W 4.6 10.00 Partly Cloudy -- 91.0 73.0 56% NA 100 30.08 1017.6
12:53 pm CDT W 4.6 10.00 Partly Cloudy -- 89.0 72.0 57% NA 96 30.11 1018.7
11:53 am CDT W 4.6 10.00 Partly Cloudy -- 89.0 73.0 59% NA 97 30.13 1019.3
10:53 am CDT W 4.6 10.00 Mostly Cloudy -- 87.0 73.9 65% NA 95 30.15 1019.9
9:53 am CDT W 4.6 10.00 Mostly Cloudy -- 84.0 73.0 70% NA 90 30.14 1019.6
8:53 am CDT W 4.6 10.00 Mostly Cloudy -- 82.0 73.9 77% NA 88 30.15 1019.8
7:53 am CDT W 4.6 10.00 Mostly Cloudy -- 80.0 73.9 82% NA 84 30.14 1019.6
6:53 am CDT W 5.8 10.00 Mostly Cloudy -- 77.0 73.9 90% NA NA 30.12 1019.1
5:53 am CDT W 5.8 10.00 Mostly Cloudy -- 74.0 73.0 97% NA NA 30.11 1018.6
4:53 am CDT W 5.8 10.00 Mostly Cloudy -- 76.0 73.9 94% NA NA 30.10 1018.2
3:53 am CDT SW 9.2 10.00 Mostly Cloudy -- 76.0 73.0 91% NA NA 30.09 1017.8
2:53 am CDT W 6.9 10.00 Mostly Cloudy -- 77.0 73.0 88% NA NA 30.07 1017.2
1:53 am CDT N 0.0 10.00 A Few Clouds -- 76.0 72.0 88% NA NA 30.06 1016.9
12:53 am CDT W 3.5 10.00 Fair -- 78.0 72.0 82% NA NA 30.05 1016.6
11:53 pm CDT SW 6.9 10.00 Fair -- 81.0 73.0 77% NA 86 30.06 1017.0
10:53 pm CDT SW 9.2 10.00 Partly Cloudy -- 81.0 73.0 77% NA 86 30.06 1016.9
9:53 pm CDT SW 13.8 10.00 Mostly Cloudy -- 83.0 72.0 70% NA 88 30.07 1017.2
8:53 pm CDT SW 12.7 10.00 Mostly Cloudy -- 86.0 70.0 59% NA 91 30.05 1016.8
7:53 pm CDT W 11.5 10.00 Mostly Cloudy -- 88.0 69.1 54% NA 92 30.03 1016.0
6:53 pm CDT W 9.2 10.00 Partly Cloudy -- 91.0 66.9 45% NA 94 30.00 1015.1
5:53 pm CDT W 9.2 10.00 Partly Cloudy -- 92.0 66.9 44% NA 95 30.00 1015.0
4:53 pm CDT SW 12.7 10.00 Partly Cloudy -- 92.0 66.9 44% NA 95 30.01 1015.2
3:53 pm CDT S 8.1 10.00 Mostly Cloudy -- 90.0 66.9 47% NA 93 30.02 1015.7

Regional Weather Observation


Jasper Walker County Airport amp; Bevill Field, AL (KJFX)

Fair
95.0 F

Bessemer Airport, AL (KEKY)

Mostly Cloudy
90.0 F

Alabaster, Shelby County Airport, AL (KEET)

Fair
89.0 F

St Clair County Airport, AL (KPLR)

Fair
90.0 F

Gadsden, Gadsden Municipal Airport, AL (KGAD)

Fair
90.0 F

Cullman Regional Folsom Field, AL (KCMD)

Partly Cloudy
90.0 F

Advertise Here


Advertise Here